Flag for Switzerland Weather past 2 weeks in Kriens, Lucerne, Switzerland

Now
30 °F

Chilly.


Feels Like: 27 °F
Forecast: 37 / 41 °F
Wind: 3 mph from Northwest

Location: Giswil

Current Time: Jan 28, 2015 at 7:13:53 PM

Latest Report: Jan 28, 2015 at 6:00 PM


Visibility: N/A

Pressure: 29.98 "Hg

Humidity: 86%

Dew point: 27 °F

Location of KriensLocation

Historic Weather in Kriens — Graph

°F

Kriens temperature yesterday

Maximum temperature yesterday: 35 °F (at 2:00 PM)
Minimum temperature yesterday: 30 °F (at 11:00 PM)
Average temperature yesterday: 33 °F

Past Weeks' High & Low Weather Summary

 TemperatureHumidityPressure
High48 °F (Jan 14, 5:00 PM)100% (Jan 15, 2:00 AM)30.50 "Hg (Jan 15, 2:00 AM)
Low17 °F (Jan 28, 7:00 AM)45% (Jan 15, 3:00 PM)29.70 "Hg (Jan 16, 4:00 PM)
Average33 °F93%30.09 "Hg
* Reported Jan 13 5:00 PM — Jan 28 5:00 PM, Kriens, Weather by CustomWeather, © 2014

Note: Actual official high and low records may vary slightly from our data, if they occured in-between our weather recording intervals... More about our weather records

Advertising

Kriens weather history for previous 24 hours

 ConditionsComfort  
Time TempWeatherWind HumidityBarometerVisibility
5:00 PM
Jan 28
36 °FChilly.6 mph72%29.99 "HgN/A
4:00 PM37 °FChilly.2 mph68%29.99 "HgN/A
3:00 PM35 °FChilly.2 mph70%30.07 "HgN/A
2:00 PM34 °FChilly.1 mph72%30.11 "HgN/A
1:00 PM34 °FChilly.1 mph69%30.15 "HgN/A
12:00 PM32 °FChilly.2 mph82%30.18 "HgN/A
11:00 AM28 °FChilly.2 mph90%30.22 "HgN/A
10:00 AM19 °FCold.1 mph100%30.29 "HgN/A
9:00 AM18 °FCold.2 mph100%30.30 "HgN/A
8:00 AM17 °FCold.1 mph100%30.31 "HgN/A
7:00 AM17 °FCold.2 mph100%30.30 "HgN/A
6:00 AM18 °FCold.1 mph100%30.30 "HgN/A
5:00 AM20 °FCold.2 mph100%30.32 "HgN/A
4:00 AM19 °FCold.2 mph100%30.34 "HgN/A
3:00 AM24 °FCold.2 mph100%30.34 "HgN/A
2:00 AM21 °FCold.2 mph100%30.35 "HgN/A
1:00 AM29 °FChilly.3 mph100%30.33 "HgN/A
12:00 AM30 °FChilly.1 mph100%30.32 "HgN/A
11:00 PM
Jan 27
30 °FChilly.No wind100%30.32 "HgN/A
10:00 PM32 °FChilly.3 mph100%30.32 "HgN/A
9:00 PM32 °FChilly.1 mph100%30.31 "HgN/A
8:00 PM31 °FChilly.No wind100%30.32 "HgN/A
7:00 PM32 °FChilly.1 mph100%30.32 "HgN/A
Weather by CustomWeather, © 2014

See weather overviewHow to use our weather pages